 day,  time,  air_temp(C),  RH(%),  ground_temp10cm(C),  ground_temp20cm(C),  ground_temp40cm(C),  precipitation(mm/h),  Solar_Radiation(MJ/m2h),  lack, 
 09/01/01, 01:00,  -7.7,  82,   1.1,   1.7,   2.8,   0.0,  0.00, 
 09/01/01, 02:00,  -8.7,  83,   1.1,   1.7,   2.8,   0.0,  0.00, 
 09/01/01, 03:00,  -7.8,  76,   1.0,   1.6,   2.8,   0.0,  0.00, 
 09/01/01, 04:00,  -8.8,  84,   1.1,   1.7,   2.8,   0.0,  0.00, 
 09/01/01, 05:00,  -9.1,  84,   1.0,   1.6,   2.8,   0.0,  0.00, 
 09/01/01, 06:00,  -8.3,  88,   1.0,   1.6,   2.8,   0.0,  0.00, 
 09/01/01, 07:00,  -8.5,  90,   1.0,   1.6,   2.8,   0.0,  0.00, 
 09/01/01, 08:00,  -8.1,  90,   1.0,   1.6,   2.8,   0.0,  0.07, 
 09/01/01, 09:00,  -6.5,  80,   1.1,   1.7,   2.8,   0.0,  0.51, 
 09/01/01, 10:00,  -6.1,  90,   1.1,   1.8,   2.8,   0.0,  1.41, 
 09/01/01, 11:00,  -5.8,  88,   1.1,   1.7,   2.8,   0.0,  1.52, 
 09/01/01, 12:00,  -5.7,  83,   1.1,   1.8,   2.8,   0.0,  1.20, 
 09/01/01, 13:00,  -5.5,  91,   1.1,   1.8,   2.8,   0.5,  0.80, 
 09/01/01, 14:00,  -6.2,  87,   1.1,   1.8,   2.8,   0.5,  0.79, 
 09/01/01, 15:00,  -6.2,  87,   1.1,   1.8,   2.8,   0.5,  0.48, 
 09/01/01, 16:00,  -6.6,  92,   1.1,   1.8,   2.8,   0.0,  0.34, 
 09/01/01, 17:00,  -7.0,  89,   1.1,   1.8,   2.8,   0.5,  0.15, 
 09/01/01, 18:00,  -7.2,  89,   1.1,   1.8,   2.8,   0.5,  0.00, 
 09/01/01, 19:00,  -7.7,  90,   1.1,   1.8,   2.8,   0.0,  0.00, 
 09/01/01, 20:00,  -7.9,  92,   1.1,   1.8,   2.9,   0.0,  0.00, 
 09/01/01, 21:00,  -7.8,  90,   1.1,   1.8,   2.9,   0.0,  0.00, 
 09/01/01, 22:00,  -7.7,  87,   1.0,   1.7,   2.9,   0.0,  0.00, 
 09/01/01, 23:00,  -7.7,  92,   1.1,   1.8,   2.9,   0.0,  0.00, 
 09/01/02, 00:00,  -7.4,  92,   1.1,   1.8,   2.9,   0.0,  0.00, 
 09/01/02, 01:00,  -7.4,  93,   1.0,   1.7,   2.9,   1.0,  0.00, 
 09/01/02, 02:00,  -7.3,  94,   1.1,   1.8,   2.9,   0.0,  0.00, 
 09/01/02, 03:00,  -7.1,  93,   1.0,   1.7,   2.9,   0.0,  0.00, 
 09/01/02, 04:00,  -7.0,  91,   1.0,   1.7,   2.9,   0.5,  0.00, 
 09/01/02, 05:00,  -6.9,  92,   1.0,   1.7,   2.9,   0.5,  0.00, 
 09/01/02, 06:00,  -6.8,  92,   1.0,   1.7,   2.9,   0.5,  0.00, 
 09/01/02, 07:00,  -6.6,  93,   1.0,   1.7,   2.9,   0.5,  0.00, 
 09/01/02, 08:00,  -6.4,  96,   1.0,   1.7,   2.9,   1.0,  0.05, 
 09/01/02, 09:00,  -6.0,  91,   1.0,   1.7,   2.9,   0.5,  0.25, 
 09/01/02, 10:00,  -5.5,  93,   1.0,   1.7,   2.9,   0.0,  0.41, 
 09/01/02, 11:00,  -5.3,  89,   1.0,   1.7,   2.9,   0.0,  0.62, 
 09/01/02, 12:00,  -5.1,  91,   1.1,   1.8,   2.9,   0.0,  0.76, 
 09/01/02, 13:00,  -5.0,  89,   1.0,   1.7,   2.9,   0.0,  0.76, 
 09/01/02, 14:00,  -5.2,  91,   1.1,   1.8,   2.9,   0.0,  0.53, 
 09/01/02, 15:00,  -5.3,  89,   1.0,   1.7,   2.9,   0.0,  0.40, 
 09/01/02, 16:00,  -5.7,  92,   1.0,   1.7,   2.9,   0.0,  0.25, 
 09/01/02, 17:00,  -6.4,  91,   1.0,   1.7,   2.9,   0.0,  0.10, 
 09/01/02, 18:00,  -6.6,  90,   1.1,   1.8,   2.9,   0.0,  0.00, 
 09/01/02, 19:00,  -6.6,  92,   1.0,   1.7,   2.9,   0.0,  0.00, 
 09/01/02, 20:00,  -6.4,  93,   1.1,   1.8,   2.9,   0.5,  0.00, 
 09/01/02, 21:00,  -6.6,  92,   1.1,   1.8,   2.9,   0.0,  0.00, 
 09/01/02, 22:00,  -6.7,  94,   1.1,   1.8,   2.9,   0.0,  0.00, 
 09/01/02, 23:00,  -6.9,  94,   1.1,   1.8,   2.9,   0.5,  0.00, 
 09/01/03, 00:00,  -6.8,  93,   1.1,   1.8,   2.9,   0.0,  0.00, 
 09/01/03, 01:00,  -6.8,  91,   1.1,   1.8,   2.9,   0.5,  0.00, 
 09/01/03, 02:00,  -7.1,  90,   1.1,   1.8,   2.9,   0.5,  0.00, 
 09/01/03, 03:00,  -6.8,  93,   1.1,   1.8,   2.9,   0.0,  0.00, 
 09/01/03, 04:00,  -6.9,  91,   1.1,   1.8,   2.9,   0.0,  0.00, 
 09/01/03, 05:00,  -6.8,  92,   1.1,   1.8,   2.9,   0.0,  0.00, 
 09/01/03, 06:00,  -6.5,  90,   1.1,   1.8,   2.9,   0.0,  0.00, 
 09/01/03, 07:00,  -6.7,  89,   1.1,   1.8,   2.9,   0.0,  0.00, 
 09/01/03, 08:00,  -6.7,  93,   1.1,   1.8,   2.9,   0.5,  0.01, 
 09/01/03, 09:00,  -6.3,  91,   1.1,   1.8,   2.9,   0.0,  0.33, 
 09/01/03, 10:00,  -5.7,  90,   1.1,   1.8,   2.9,   0.0,  0.74, 
 09/01/03, 11:00,  -5.5,  89,   1.1,   1.8,   2.9,   0.0,  1.01, 
 09/01/03, 12:00,  -5.4,  91,   1.1,   1.8,   2.9,   0.0,  0.92, 
 09/01/03, 13:00,  -5.6,  91,   1.1,   1.8,   2.9,   0.0,  0.76, 
 09/01/03, 14:00,  -4.4,  83,   1.1,   1.8,   2.9,   0.0,  1.36, 
 09/01/03, 15:00,  -5.0,  80,   1.1,   1.8,   3.0,   0.0,  0.78, 
 09/01/03, 16:00,  -5.4,  85,   1.1,   1.8,   2.9,   0.0,  0.39, 
 09/01/03, 17:00,  -5.8,  85,   1.1,   1.8,   3.0,   0.0,  0.16, 
 09/01/03, 18:00,  -6.4,  96,   1.1,   1.8,   2.9,   0.0,  0.00, 
 09/01/03, 19:00,  -6.2,  92,   1.1,   1.8,   2.9,   0.0,  0.00, 
 09/01/03, 20:00,  -6.3,  90,   1.1,   1.8,   3.0,   0.5,  0.00, 
 09/01/03, 21:00,  -6.4,  86,   1.1,   1.8,   2.9,   0.0,  0.00, 
 09/01/03, 22:00,  -6.6,  84,   1.1,   1.8,   2.9,   0.0,  0.00, 
 09/01/03, 23:00,  -6.9,  88,   1.1,   1.8,   3.0,   0.0,  0.00, 
 09/01/04, 00:00,  -7.0,  85,   1.1,   1.8,   2.9,   0.0,  0.00, 
 09/01/04, 01:00,  -6.4,  74,   1.1,   1.8,   3.0,   0.0,  0.00, 
 09/01/04, 02:00,  -7.0,  80,   1.1,   1.8,   3.0,   0.0,  0.00, 
 09/01/04, 03:00,  -6.9,  78,   1.1,   1.8,   3.0,   0.0,  0.00, 
 09/01/04, 04:00,  -7.3,  87,   1.1,   1.8,   2.9,   0.0,  0.00, 
 09/01/04, 05:00,  -7.3,  78,   1.1,   1.8,   2.9,   0.0,  0.00, 
 09/01/04, 06:00,  -7.6,  78,   1.1,   1.8,   3.0,   0.0,  0.00, 
 09/01/04, 07:00,  -7.7,  74,   1.1,   1.8,   2.9,   0.0,  0.00, 
 09/01/04, 08:00,  -6.9,  71,   1.1,   1.8,   3.0,   0.0,  0.04, 
 09/01/04, 09:00,  -5.3,  70,   1.1,   1.8,   3.0,   0.0,  0.72, 
 09/01/04, 10:00,  -3.5,  67,   1.1,   1.8,   3.0,   0.0,  1.35, 
 09/01/04, 11:00,  -2.8,  61,   1.2,   1.8,   3.0,   0.0,  1.83, 
 09/01/04, 12:00,  -2.8,  65,   1.2,   1.9,   3.0,   0.0,  1.99, 
 09/01/04, 13:00,  -2.2,  61,   1.2,   1.8,   3.0,   0.0,  2.10, 
 09/01/04, 14:00,  -1.8,  66,   1.2,   1.8,   3.0,   0.0,  1.65, 
 09/01/04, 15:00,  -2.3,  62,   1.2,   1.8,   3.0,   0.0,  0.89, 
 09/01/04, 16:00,  -3.2,  71,   1.2,   1.9,   3.0,   0.0,  0.40, 
 09/01/04, 17:00,  -4.2,  75,   1.2,   1.9,   3.0,   0.0,  0.12, 
 09/01/04, 18:00,  -4.7,  76,   1.2,   1.8,   3.0,   0.0,  0.00, 
 09/01/04, 19:00,  -4.2,  72,   1.2,   1.8,   3.0,   0.0,  0.00, 
 09/01/04, 20:00,  -4.2,  70,   1.1,   1.8,   3.0,   0.0,  0.00, 
 09/01/04, 21:00,  -4.4,  70,   1.1,   1.8,   3.0,   0.0,  0.00, 
 09/01/04, 22:00,  -3.8,  63,   1.1,   1.8,   3.0,   0.0,  0.00, 
 09/01/04, 23:00,  -4.6,  70,   1.1,   1.8,   3.0,   0.0,  0.00, 
 09/01/05, 00:00,  -4.5,  69,   1.1,   1.8,   3.0,   0.0,  0.00, 
 09/01/05, 01:00,  -3.5,  66,   1.1,   1.8,   3.0,   0.0,  0.00, 
 09/01/05, 02:00,  -3.2,  66,   1.1,   1.8,   3.0,   0.0,  0.00, 
 09/01/05, 03:00,  -3.3,  70,   1.1,   1.8,   3.0,   0.0,  0.00, 
 09/01/05, 04:00,  -3.3,  71,   1.1,   1.8,   3.0,   0.0,  0.00, 
 09/01/05, 05:00,  -2.7,  66,   1.1,   1.8,   3.0,   0.0,  0.00, 
 09/01/05, 06:00,  -6.1,  85,   1.1,   1.8,   3.0,   0.0,  0.00, 
 09/01/05, 07:00,  -3.4,  69,   1.1,   1.8,   2.9,   0.0,  0.00, 
 09/01/05, 08:00,  -4.2,  74,   1.1,   1.8,   3.0,   0.0,  0.06, 
 09/01/05, 09:00,  -2.7,  67,   1.1,   1.8,   3.0,   0.0,  0.63, 
 09/01/05, 10:00,  -1.1,  67,   1.1,   1.8,   3.0,   0.0,  1.33, 
 09/01/05, 11:00,  -0.7,  62,   1.1,   1.8,   3.0,   0.0,  1.79, 
 09/01/05, 12:00,  -0.6,  67,   1.1,   1.8,   3.0,   0.0,  2.03, 
 09/01/05, 13:00,  -0.5,  72,   1.1,   1.8,   3.0,   0.0,  1.68, 
 09/01/05, 14:00,   0.3,  69,   1.1,   1.8,   3.0,   0.0,  1.15, 
 09/01/05, 15:00,  -0.6,  74,   1.1,   1.8,   3.0,   0.0,  0.81, 
 09/01/05, 16:00,  -1.3,  77,   1.1,   1.8,   3.0,   0.0,  0.50, 
 09/01/05, 17:00,  -2.2,  81,   1.1,   1.8,   3.0,   0.0,  0.13, 
 09/01/05, 18:00,  -2.2,  80,   1.1,   1.8,   3.0,   0.0,  0.00, 
 09/01/05, 19:00,  -2.6,  87,   1.1,   1.8,   3.0,   0.0,  0.00, 
 09/01/05, 20:00,  -3.3,  91,   1.1,   1.8,   3.0,   0.0,  0.00, 
 09/01/05, 21:00,  -3.2,  91,   1.1,   1.8,   3.0,   0.0,  0.00, 
 09/01/05, 22:00,  -3.7,  97,   1.1,   1.8,   3.0,   0.0,  0.00, 
 09/01/05, 23:00,  -3.7,  97,   1.1,   1.8,   3.0,   0.5,  0.00, 
 09/01/06, 00:00,  -3.8,  96,   1.1,   1.8,   3.0,   2.0,  0.00, 
 09/01/06, 01:00,  -3.9,  99,   1.1,   1.8,   3.0,   0.5,  0.00, 
 09/01/06, 02:00,  -4.1,  99,   1.1,   1.8,   3.0,   0.0,  0.00, 
 09/01/06, 03:00,  -4.5,  99,   1.1,   1.8,   3.0,   0.0,  0.00, 
 09/01/06, 04:00,  -4.4,  99,   1.1,   1.8,   3.0,   0.0,  0.00, 
 09/01/06, 05:00,  -5.0,  95,   1.1,   1.8,   3.0,   0.0,  0.00, 
 09/01/06, 06:00,  -5.2,  99,   1.1,   1.8,   3.0,   0.0,  0.03, 
 09/01/06, 07:00,  -5.6,  96,   1.1,   1.8,   3.0,   0.0,  0.00, 
 09/01/06, 08:00,  -5.4,  97,   1.1,   1.8,   3.0,   0.0,  0.03, 
 09/01/06, 09:00,  -4.6,  92,   1.1,   1.8,   2.9,   0.0,  0.60, 
 09/01/06, 10:00,  -3.8,  87,   1.1,   1.8,   3.0,   0.0,  1.08, 
 09/01/06, 11:00,  -3.3,  88,   1.2,   1.8,   3.0,   0.0,  1.44, 
 09/01/06, 12:00,  -3.3,  93,   1.2,   1.8,   3.0,   0.0,  1.17, 
 09/01/06, 13:00,  -2.5,  81,   1.2,   1.8,   3.0,   0.0,  1.13, 
 09/01/06, 14:00,  -1.9,  80,   1.2,   1.8,   3.0,   0.0,  1.08, 
 09/01/06, 15:00,  -2.8,  75,   1.2,   1.8,   3.0,   0.0,  1.42, 
 09/01/06, 16:00,  -4.0,  80,   1.2,   1.8,   3.0,   0.0,  0.51, 
 09/01/06, 17:00,  -4.7,  88,   1.1,   1.8,   3.0,   0.0,  0.11, 
 09/01/06, 18:00,  -5.4,  85,   1.1,   1.8,   3.0,   0.0,  0.00, 
 09/01/06, 19:00,  -6.6,  91,   1.1,   1.8,   3.0,   0.0,  0.00, 
 09/01/06, 20:00,  -6.2,  92,   1.1,   1.8,   3.0,   0.0,  0.00, 
 09/01/06, 21:00,  -6.5,  94,   1.1,   1.8,   3.0,   0.0,  0.00, 
 09/01/06, 22:00,  -6.6,  96,   1.1,   1.8,   3.0,   0.0,  0.00, 
 09/01/06, 23:00,  -6.7,  93,   1.1,   1.8,   3.0,   0.0,  0.00, 
 09/01/07, 00:00,  -8.4,  92,   1.1,   1.8,   3.0,   0.0,  0.00, 
 09/01/07, 01:00,  -9.5,  90,   1.1,   1.8,   3.0,   0.0,  0.00, 
 09/01/07, 02:00,  -8.0,  92,   1.1,   1.8,   3.0,   0.0,  0.00, 
 09/01/07, 03:00,  -8.3,  92,   1.1,   1.8,   3.0,   0.0,  0.00, 
 09/01/07, 04:00,  -9.2,  90,   1.1,   1.8,   3.0,   0.0,  0.00, 
 09/01/07, 05:00, -10.1,  89,   1.1,   1.8,   3.0,   0.0,  0.00, 
 09/01/07, 06:00, -10.8,  88,   1.1,   1.8,   3.0,   0.0,  0.00, 
 09/01/07, 07:00, -10.4,  89,   1.1,   1.8,   2.9,   0.0,  0.00, 
 09/01/07, 08:00,  -8.8,  84,   1.1,   1.8,   2.9,   0.0,  0.06, 
 09/01/07, 09:00,  -6.8,  76,   1.1,   1.8,   3.0,   0.0,  0.70, 
 09/01/07, 10:00,  -4.1,  69,   1.1,   1.8,   3.0,   0.0,  1.23, 
 09/01/07, 11:00,  -3.8,  68,   1.2,   1.8,   3.0,   0.0,  1.66, 
 09/01/07, 12:00,  -2.9,  70,   1.2,   1.8,   3.0,   0.0,  1.85, 
 09/01/07, 13:00,  -2.2,  73,   1.2,   1.8,   3.0,   0.0,  1.88, 
 09/01/07, 14:00,  -1.5,  70,   1.2,   1.8,   3.0,   0.0,  1.82, 
 09/01/07, 15:00,  -1.8,  61,   1.2,   1.8,   3.0,   0.0,  0.96, 
 09/01/07, 16:00,  -2.2,  59,   1.2,   1.9,   3.0,   0.0,  0.40, 
 09/01/07, 17:00,  -3.0,  64,   1.2,   1.9,   3.0,   0.0,  0.12, 
 09/01/07, 18:00,  -4.8,  76,   1.2,   1.8,   3.0,   0.0,  0.00, 
 09/01/07, 19:00,  -6.0,  79,   1.2,   1.9,   3.0,   0.0,  0.00, 
 09/01/07, 20:00,  -5.5,  78,   1.2,   1.8,   3.0,   0.0,  0.00, 
 09/01/07, 21:00,  -5.5,  79,   1.2,   1.8,   3.0,   0.0,  0.00, 
 09/01/07, 22:00,  -5.3,  74,   1.1,   1.8,   3.0,   0.0,  0.00, 
 09/01/07, 23:00,  -5.4,  73,   1.2,   1.8,   3.0,   0.0,  0.00, 
 09/01/08, 00:00,  -6.3,  78,   1.1,   1.8,   2.9,   0.0,  0.00, 
 09/01/08, 01:00,  -6.4,  75,   1.1,   1.8,   2.9,   0.0,  0.00, 
 09/01/08, 02:00,  -7.0,  73,   1.1,   1.8,   3.0,   0.0,  0.00, 
 09/01/08, 03:00,  -7.3,  76,   1.1,   1.8,   2.9,   0.0,  0.00, 
 09/01/08, 04:00,  -7.0,  72,   1.1,   1.8,   2.9,   0.0,  0.00, 
 09/01/08, 05:00,  -6.8,  67,   1.1,   1.8,   2.9,   0.0,  0.00, 
 09/01/08, 06:00,  -7.0,  68,   1.1,   1.8,   2.9,   0.0,  0.00, 
 09/01/08, 07:00,  -7.0,  68,   1.1,   1.8,   2.9,   0.0,  0.00, 
 09/01/08, 08:00,  -7.1,  70,   1.1,   1.8,   2.9,   0.0,  0.07, 
 09/01/08, 09:00,  -4.5,  67,   1.1,   1.8,   2.9,   0.0,  0.71, 
 09/01/08, 10:00,  -3.4,  65,   1.1,   1.8,   2.9,   0.0,  1.41, 
 09/01/08, 11:00,  -1.9,  62,   1.1,   1.8,   2.9,   0.0,  1.90, 
 09/01/08, 12:00,  -2.0,  65,   1.1,   1.8,   2.9,   0.0,  2.05, 
 09/01/08, 13:00,  -0.8,  58,   1.2,   1.8,   2.9,   0.0,  2.17, 
 09/01/08, 14:00,  -0.4,  58,   1.2,   1.8,   2.9,   0.0,  1.84, 
 09/01/08, 15:00,  -0.7,  56,   1.1,   1.8,   2.9,   0.0,  0.82, 
 09/01/08, 16:00,  -0.8,  57,   1.1,   1.8,   2.9,   0.0,  0.40, 
 09/01/08, 17:00,  -2.2,  69,   1.1,   1.8,   2.9,   0.0,  0.13, 
 09/01/08, 18:00,  -2.2,  62,   1.1,   1.8,   2.9,   0.0,  0.00, 
 09/01/08, 19:00,  -3.3,  68,   1.1,   1.8,   2.9,   0.0,  0.00, 
 09/01/08, 20:00,  -2.4,  62,   1.1,   1.8,   2.9,   0.0,  0.00, 
 09/01/08, 21:00,  -3.1,  72,   1.1,   1.8,   2.9,   0.0,  0.00, 
 09/01/08, 22:00,  -3.6,  75,   1.1,   1.8,   2.9,   0.0,  0.00, 
 09/01/08, 23:00,  -4.1,  76,   1.1,   1.8,   2.9,   0.0,  0.00, 
 09/01/09, 00:00,  -3.3,  74,   1.1,   1.8,   2.9,   0.0,  0.00, 
 09/01/09, 01:00,  -2.2,  71,   1.1,   1.8,   2.9,   0.0,  0.00, 
 09/01/09, 02:00,  -1.8,  68,   1.1,   1.8,   2.9,   0.0,  0.00, 
 09/01/09, 03:00,  -2.3,  73,   1.1,   1.8,   2.9,   0.0,  0.00, 
 09/01/09, 04:00,  -2.8,  81,   1.1,   1.8,   2.9,   0.0,  0.00, 
 09/01/09, 05:00,  -3.3,  96,   1.1,   1.8,   2.9,   0.0,  0.00, 
 09/01/09, 06:00,  -2.1,  92,   1.1,   1.8,   2.9,   0.0,  0.00, 
 09/01/09, 07:00,  -2.3,  96,   1.1,   1.8,   2.9,   1.0,  0.00, 
 09/01/09, 08:00,  -2.0,  95,   1.1,   1.8,   2.9,   0.0,  0.00, 
 09/01/09, 09:00,  -1.5,  94,   1.1,   1.8,   2.9,   0.5,  0.16, 
 09/01/09, 10:00,  -1.0,  98,   1.1,   1.8,   2.9,   1.0,  0.22, 
 09/01/09, 11:00,   0.1,  97,   1.1,   1.8,   2.9,   0.5,  0.41, 
 09/01/09, 12:00,   0.0,  99,   1.1,   1.7,   2.9,   0.0,  0.41, 
 09/01/09, 13:00,   0.0,  99,   1.1,   1.7,   2.9,   0.5,  0.40, 
 09/01/09, 14:00,   0.4,  99,   1.1,   1.7,   2.9,   0.5,  0.22, 
 09/01/09, 15:00,   0.1,  99,   1.1,   1.7,   2.9,   0.5,  0.20, 
 09/01/09, 16:00,   0.1,  99,   1.1,   1.7,   2.9,   0.5,  0.15, 
 09/01/09, 17:00,  -0.1,  99,   1.1,   1.7,   2.9,   0.5,  0.05, 
 09/01/09, 18:00,  -0.1,  99,   1.1,   1.7,   2.9,   1.0,  0.01, 
 09/01/09, 19:00,  -0.2,  99,   1.1,   1.7,   2.9,   0.0,  0.00, 
 09/01/09, 20:00,  -0.5,  99,   1.1,   1.7,   2.9,   0.0,  0.00, 
 09/01/09, 21:00,  -1.1,  99,   1.1,   1.7,   2.9,   0.5,  0.00, 
 09/01/09, 22:00,  -1.4,  98,   1.1,   1.7,   2.9,   0.0,  0.00, 
 09/01/09, 23:00,  -1.7,  94,   1.1,   1.7,   2.9,   0.0,  0.00, 
 09/01/10, 00:00,  -1.9,  96,   1.1,   1.7,   2.9,   0.0,  0.00, 
 09/01/10, 01:00,  -2.6,  99,   1.1,   1.7,   2.9,   1.0,  0.00, 
 09/01/10, 02:00,  -2.9,  98,   1.1,   1.7,   2.9,   0.0,  0.00, 
 09/01/10, 03:00,  -2.9,  97,   1.1,   1.7,   2.9,   0.0,  0.00, 
 09/01/10, 04:00,  -3.9,  96,   1.1,   1.7,   2.9,   2.0,  0.00, 
 09/01/10, 05:00,  -4.5,  97,   1.1,   1.7,   2.9,   1.5,  0.06, 
 09/01/10, 06:00,  -5.6,  94,   1.1,   1.7,   2.9,   1.0,  0.02, 
 09/01/10, 07:00,  -6.1,  94,   1.1,   1.7,   2.9,   0.5,  0.00, 
 09/01/10, 08:00,  -6.5,  92,   1.1,   1.7,   2.9,   0.0,  0.06, 
 09/01/10, 09:00,  -6.3,  93,   1.1,   1.7,   2.9,   0.5,  0.21, 
 09/01/10, 10:00,  -6.1,  90,   1.1,   1.7,   2.9,   0.0,  0.42, 
 09/01/10, 11:00,  -5.9,  88,   1.1,   1.7,   2.9,   0.0,  0.71, 
 09/01/10, 12:00,  -6.6,  88,   1.1,   1.7,   2.9,   0.0,  0.71, 
 09/01/10, 13:00,  -7.1,  88,   1.1,   1.7,   2.9,   0.5,  0.61, 
 09/01/10, 14:00,  -7.1,  81,   1.1,   1.7,   2.9,   0.0,  1.12, 
 09/01/10, 15:00,  -8.1,  90,   1.1,   1.7,   2.9,   0.0,  0.69, 
 09/01/10, 16:00,  -8.8,  87,   1.1,   1.7,   2.9,   0.0,  0.39, 
 09/01/10, 17:00,  -9.6,  84,   1.1,   1.7,   2.9,   0.0,  0.13, 
 09/01/10, 18:00, -10.1,  85,   1.1,   1.7,   2.9,   0.0,  0.00, 
 09/01/10, 19:00, -10.2,  87,   1.1,   1.7,   2.9,   0.0,  0.00, 
 09/01/10, 20:00, -10.4,  88,   1.1,   1.7,   2.9,   0.0,  0.00, 
 09/01/10, 21:00, -10.4,  90,   1.1,   1.7,   2.9,   0.5,  0.00, 
 09/01/10, 22:00, -10.7,  87,   1.1,   1.7,   2.9,   0.0,  0.00, 
 09/01/10, 23:00, -10.9,  89,   1.1,   1.7,   2.8,   0.5,  0.00, 
 09/01/11, 00:00, -11.1,  88,   1.1,   1.7,   2.8,   0.0,  0.00, 
 09/01/11, 01:00, -11.3,  84,   1.1,   1.7,   2.8,   0.5,  0.00, 
 09/01/11, 02:00, -11.4,  85,   1.1,   1.7,   2.8,   0.0,  0.00, 
 09/01/11, 03:00, -11.3,  84,   1.1,   1.7,   2.8,   0.0,  0.00, 
 09/01/11, 04:00, -10.9,  82,   1.1,   1.7,   2.8,   0.0,  0.00, 
 09/01/11, 05:00, -10.8,  83,   1.1,   1.7,   2.8,   0.0,  0.00, 
 09/01/11, 06:00, -10.3,  80,   1.1,   1.7,   2.8,   0.0,  0.00, 
 09/01/11, 07:00, -10.6,  84,   1.0,   1.7,   2.8,   0.0,  0.00, 
 09/01/11, 08:00,  -9.8,  82,   1.1,   1.7,   2.8,   0.0,  0.05, 
 09/01/11, 09:00,  -7.4,  70,   1.1,   1.7,   2.8,   0.0,  0.36, 
 09/01/11, 10:00,  -6.4,  79,   1.1,   1.7,   2.8,   0.0,  0.84, 
 09/01/11, 11:00,  -6.3,  86,   1.1,   1.7,   2.8,   0.0,  0.92, 
 09/01/11, 12:00,  -5.6,  69,   1.1,   1.7,   2.9,   0.0,  1.05, 
 09/01/11, 13:00,  -4.8,  73,   1.1,   1.7,   2.9,   0.0,  1.14, 
 09/01/11, 14:00,  -5.3,  77,   1.1,   1.7,   2.9,   0.0,  0.99, 
 09/01/11, 15:00,  -5.7,  87,   1.1,   1.7,   2.9,   0.0,  0.59, 
 09/01/11, 16:00,  -6.0,  92,   1.1,   1.7,   2.8,   0.0,  0.19, 
 09/01/11, 17:00,  -6.3,  90,   1.1,   1.7,   2.9,   0.0,  0.07, 
 09/01/11, 18:00,  -6.3,  87,   1.1,   1.7,   2.8,   0.5,  0.00, 
 09/01/11, 19:00,  -6.5,  91,   1.1,   1.7,   2.9,   0.0,  0.00, 
 09/01/11, 20:00,  -6.4,  87,   1.1,   1.7,   2.8,   0.0,  0.00, 
 09/01/11, 21:00,  -6.7,  89,   1.1,   1.7,   2.8,   0.0,  0.00, 
 09/01/11, 22:00,  -6.7,  86,   1.1,   1.7,   2.8,   0.0,  0.00, 
 09/01/11, 23:00,  -7.2,  91,   1.1,   1.7,   2.8,   0.0,  0.00, 
 09/01/12, 00:00,  -7.3,  89,   1.1,   1.7,   2.8,   0.0,  0.00, 
 09/01/12, 01:00,  -7.8,  88,   1.0,   1.6,   2.8,   0.0,  0.00, 
 09/01/12, 02:00,  -7.7,  79,   1.0,   1.7,   2.8,   0.0,  0.00, 
 09/01/12, 03:00,  -7.1,  74,   1.0,   1.6,   2.8,   0.0,  0.00, 
 09/01/12, 04:00,  -7.3,  87,   1.1,   1.7,   2.8,   0.0,  0.00, 
 09/01/12, 05:00,  -7.1,  88,   1.0,   1.7,   2.8,   0.0,  0.00, 
 09/01/12, 06:00,  -7.1,  89,   1.1,   1.7,   2.8,   0.0,  0.00, 
 09/01/12, 07:00,  -7.1,  94,   1.0,   1.6,   2.8,   0.0,  0.00, 
 09/01/12, 08:00,  -6.7,  93,   1.0,   1.6,   2.8,   0.5,  0.00, 
 09/01/12, 09:00,  -7.0,  98,   1.0,   1.6,   2.8,   0.0,  0.11, 
 09/01/12, 10:00,  -6.1,  84,   1.0,   1.6,   2.8,   0.0,  0.48, 
 09/01/12, 11:00,  -5.9,  86,   1.0,   1.6,   2.8,   0.0,  0.51, 
 09/01/12, 12:00,  -5.6,  83,   1.1,   1.7,   2.8,   0.0,  0.72, 
 09/01/12, 13:00,  -6.3,  80,   1.1,   1.7,   2.8,   0.0,  0.88, 
 09/01/12, 14:00,  -7.0,  88,   1.1,   1.7,   2.8,   0.5,  0.45, 
 09/01/12, 15:00,  -7.3,  87,   1.1,   1.7,   2.8,   0.0,  0.79, 
 09/01/12, 16:00,  -7.3,  74,   1.1,   1.7,   2.8,   0.0,  0.57, 
 09/01/12, 17:00,  -8.1,  88,   1.1,   1.7,   2.8,   0.0,  0.13, 
 09/01/12, 18:00,  -8.5,  90,   1.1,   1.7,   2.8,   0.5,  0.00, 
 09/01/12, 19:00,  -8.3,  94,   1.0,   1.7,   2.8,   0.0,  0.00, 
 09/01/12, 20:00,  -8.3,  92,   1.1,   1.7,   2.8,   0.5,  0.00, 
 09/01/12, 21:00,  -8.1,  94,   1.1,   1.7,   2.8,   1.0,  0.00, 
 09/01/12, 22:00,  -8.1,  93,   1.1,   1.7,   2.8,   0.5,  0.00, 
 09/01/12, 23:00,  -8.1,  92,   1.1,   1.7,   2.8,   0.5,  0.00, 
 09/01/13, 00:00,  -8.5,  93,   1.0,   1.6,   2.8,   0.5,  0.00, 
 09/01/13, 01:00,  -8.6,  93,   1.1,   1.7,   2.8,   0.5,  0.00, 
 09/01/13, 02:00,  -8.7,  92,   1.0,   1.6,   2.8,   0.5,  0.00, 
 09/01/13, 03:00,  -8.7,  93,   1.0,   1.6,   2.8,   0.5,  0.00, 
 09/01/13, 04:00,  -8.7,  93,   1.1,   1.7,   2.8,   1.0,  0.00, 
 09/01/13, 05:00,  -9.3,  93,   1.0,   1.6,   2.8,   0.5,  0.00, 
 09/01/13, 06:00,  -8.8,  93,   1.0,   1.6,   2.8,   0.5,  0.00, 
 09/01/13, 07:00,  -8.8,  93,   1.1,   1.7,   2.8,   1.5,  0.00, 
 09/01/13, 08:00,  -8.7,  93,   1.0,   1.6,   2.8,   2.0,  0.00, 
 09/01/13, 09:00,  -8.2,  93,   1.0,   1.6,   2.8,   2.5,  0.03, 
 09/01/13, 10:00,  -7.5,  96,   1.1,   1.7,   2.8,   1.5,  0.14, 
 09/01/13, 11:00,  -7.3,  97,   1.0,   1.6,   2.8,   0.5,  0.17, 
 09/01/13, 12:00,  -6.9,  93,   1.0,   1.6,   2.8,   3.0,  0.19, 
 09/01/13, 13:00,  -6.7,  94,   1.1,   1.7,   2.8,   3.0,  0.15, 
 09/01/13, 14:00,  -6.9,  96,   1.1,   1.7,   2.9,   1.5,  0.26, 
 09/01/13, 15:00,  -6.4,  95,   1.1,   1.7,   2.8,   0.5,  0.38, 
 09/01/13, 16:00,  -6.7,  96,   1.2,   1.7,   2.8,   1.0,  0.28, 
 09/01/13, 17:00,  -7.0,  90,   1.2,   1.7,   2.9,   0.5,  0.07, 
 09/01/13, 18:00,  -7.1,  92,   1.1,   1.7,   2.9,   0.5,  0.00, 
 09/01/13, 19:00,  -7.4,  91,   1.1,   1.7,   2.9,   0.0,  0.00, 
 09/01/13, 20:00,  -7.5,  89,   1.1,   1.7,   2.8,   0.0,  0.00, 
 09/01/13, 21:00,  -7.6,  89,   1.1,   1.7,   2.8,   0.0,  0.00, 
 09/01/13, 22:00,  -8.0,  85,   1.1,   1.7,   2.8,   0.0,  0.00, 
 09/01/13, 23:00,  -8.3,  86,   1.1,   1.7,   2.8,   0.0,  0.00, 
 09/01/14, 00:00,  -8.0,  88,   1.1,   1.7,   2.8,   0.0,  0.00, 
 09/01/14, 01:00,  -8.6,  91,   1.1,   1.7,   2.8,   0.0,  0.00, 
 09/01/14, 02:00, -10.7,  93,   1.1,   1.7,   2.8,   0.0,  0.00, 
 09/01/14, 03:00,  -9.4,  91,   1.1,   1.7,   2.8,   0.0,  0.00, 
 09/01/14, 04:00,  -9.0,  85,   1.1,   1.7,   2.7,   0.0,  0.00, 
 09/01/14, 05:00,  -9.4,  86,   1.1,   1.7,   2.7,   0.0,  0.00, 
 09/01/14, 06:00, -10.8,  81,   1.1,   1.7,   2.7,   0.0,  0.00, 
 09/01/14, 07:00,  -9.0,  66,   1.1,   1.7,   2.7,   0.0,  0.00, 
 09/01/14, 08:00, -10.1,  87,   1.1,   1.7,   2.7,   0.0,  0.04, 
 09/01/14, 09:00,  -8.5,  81,   1.1,   1.7,   2.7,   0.0,  1.07, 
 09/01/14, 10:00,  -4.5,  69,   1.1,   1.7,   2.8,   0.0,  1.94, 
 09/01/14, 11:00,  -4.8,  99,   1.1,   1.7,   2.8,   0.0,  2.32, 
 09/01/14, 12:00,  -5.4,  99,   1.2,   1.7,   2.8,   0.0,  1.25, 
 09/01/14, 13:00,  -5.0,  89,   1.2,   1.7,   2.8,   0.0,  1.17, 
 09/01/14, 14:00,  -4.9,  99,   1.2,   1.7,   2.8,   0.0,  0.92, 
 09/01/14, 15:00,  -5.4,  93,   1.2,   1.7,   2.8,   0.0,  0.75, 
 09/01/14, 16:00,  -5.8,  88,   1.2,   1.7,   2.8,   0.0,  0.58, 
 09/01/14, 17:00,  -6.3,  84,   1.2,   1.8,   2.8,   0.0,  0.23, 
 09/01/14, 18:00,  -6.7,  92,   1.2,   1.7,   2.8,   0.0,  0.00, 
 09/01/14, 19:00,  -6.7,  96,   1.2,   1.7,   2.8,   0.0,  0.00, 
 09/01/14, 20:00,  -6.5,  96,   1.2,   1.7,   2.8,   0.0,  0.00, 
 09/01/14, 21:00,  -6.6,  97,   1.2,   1.7,   2.8,   0.0,  0.00, 
 09/01/14, 22:00,  -6.6,  99,   1.1,   1.7,   2.8,   1.5,  0.00, 
 09/01/14, 23:00,  -6.8,  99,   1.1,   1.7,   2.8,   0.0,  0.00, 
 09/01/15, 00:00,  -8.0,  95,   1.1,   1.7,   2.8,   2.0,  0.00, 
 09/01/15, 01:00,  -8.8,  94,   1.1,   1.7,   2.8,   0.5,  0.00, 
 09/01/15, 02:00,  -9.7,  92,   1.1,   1.7,   2.8,   0.0,  0.00, 
 09/01/15, 03:00, -10.3,  91,   1.1,   1.7,   2.8,   0.5,  0.00, 
 09/01/15, 04:00, -10.6,  88,   1.1,   1.7,   2.8,   0.0,  0.00, 
 09/01/15, 05:00, -10.8,  88,   1.1,   1.7,   2.8,   0.0,  0.00, 
 09/01/15, 06:00, -11.0,  86,   1.1,   1.7,   2.8,   0.0,  0.00, 
 09/01/15, 07:00, -11.1,  91,   1.1,   1.7,   2.8,   0.0,  0.00, 
 09/01/15, 08:00, -11.0,  89,   1.1,   1.7,   2.8,   0.0,  0.06, 
 09/01/15, 09:00, -10.0,  99,   1.1,   1.7,   2.8,   0.0,  0.37, 
 09/01/15, 10:00,  -9.7,  95,   1.1,   1.7,   2.8,   0.0,  0.79, 
 09/01/15, 11:00,  -9.8,  92,   1.1,   1.7,   2.8,   0.0,  1.11, 
 09/01/15, 12:00,  -9.5,  83,   1.1,   1.7,   2.8,   0.0,  1.66, 
 09/01/15, 13:00,  -8.6,  87,   1.1,   1.7,   2.8,   0.0,  1.79, 
 09/01/15, 14:00,  -8.4,  82,   1.1,   1.7,   2.8,   0.0,  1.77, 
 09/01/15, 15:00,  -8.1,  80,   1.1,   1.7,   2.8,   0.0,  1.39, 
 09/01/15, 16:00,  -8.8,  74,   1.1,   1.7,   2.8,   0.0,  0.95, 
 09/01/15, 17:00,  -9.5,  79,   1.1,   1.7,   2.8,   0.0,  0.31, 
 09/01/15, 18:00, -10.5,  85,   1.1,   1.7,   2.8,   0.0,  0.00, 
 09/01/15, 19:00, -10.5,  83,   1.1,   1.7,   2.8,   0.0,  0.00, 
 09/01/15, 20:00, -10.9,  80,   1.1,   1.7,   2.8,   0.0,  0.00, 
 09/01/15, 21:00, -11.1,  75,   1.1,   1.7,   2.8,   0.0,  0.00, 
 09/01/15, 22:00, -11.1,  72,   1.1,   1.7,   2.8,   0.0,  0.00, 
 09/01/15, 23:00, -11.4,  77,   1.1,   1.7,   2.8,   0.0,  0.00, 
 09/01/16, 00:00,  -9.7,  68,   1.1,   1.7,   2.8,   0.0,  0.00, 
 09/01/16, 01:00,  -9.5,  67,   1.1,   1.7,   2.7,   0.0,  0.00, 